Weather History for Poteau, OK

Change the Weather History Date:

Thursday, September 26, 2013

  Actual Average (KFSM) Record (KFSM)
Temperature  
Mean Temperature 73 °F 70 °F  
Max Temperature 91 °F 81 °F 96 °F (1954)
Min Temperature 55 °F 58 °F 40 °F (1982)
Degree Days  
Heating Degree Days 0 1  
Month to date heating degree days 9  
Since 1 July heating degree days 9  
Cooling Degree Days 8 6  
Month to date cooling degree days 260  
Year to date cooling degree days 1955  
Growing Degree Days 23 (Base 50)    
Moisture  
Dew Point 62 °F    
Average Humidity 74    
Maximum Humidity 100    
Minimum Humidity 41    
Precipitation  
Precipitation 0.00 in 0.15 in 2.87 in (1936)
Month to date precipitation 3.50  
Year to date precipitation 32.86  
Sea Level Pressure  
Sea Level Pressure 29.90 in    
Wind  
Wind Speed 1 mph (SE)    
Max Wind Speed 8 mph    
Max Gust Speed -    
Visibility 9 miles    
Events Fog    
T = Trace of Precipitation, MM = Missing Value Source: NWS Daily Summary

Daily Weather History Graph

Daily Weather History Graph

Search for Another Location

Airport:

Trip Planner

Search our weather history database for the weather conditions in past years. The results will help you decide how hot, cold, wet, or windy it might be!

Date:

Astronomy

Sep. 26, 2013 Rise Set
Actual Time 7:09 AM CDT 7:09 PM CDT
Civil Twilight 6:44 AM CDT 7:34 PM CDT
Nautical Twilight 6:14 AM CDT 8:03 PM CDT
Astronomical Twilight 5:45 AM CDT 8:33 PM CDT
Moon No Moon Rise 1:50 PM CDT (9/26)
Length of Visible Light 12h 49m
Length of Day
11h 59m
Waning Gibbous, 54% of the Moon is Illuminated
Sep 26
Waning Gibbous
Sep 26
Last Quarter
Oct 4
New
Oct 11
First Quarter
Oct 18
Full

Hourly Weather History & Observations

Time (CDT) Temp. Heat Index Dew Point Humidity Pressure Visibility Wind Dir Wind Speed Gust Speed Precip Events Conditions
12:15 AM 60.8 °F - 60.8 °F 100% 29.85 in 7.0 mi Calm Calm - N/A   Unknown
12:35 AM 60.8 °F - 60.8 °F 100% 29.85 in 1.5 mi Calm Calm - N/A   Mist
12:55 AM 60.8 °F - 60.8 °F 100% 29.85 in 10.0 mi Calm Calm - N/A   Unknown
1:15 AM 59.0 °F - 59.0 °F 100% 29.86 in 0.5 mi Calm Calm - N/A Fog Fog
1:35 AM 60.8 °F - 60.8 °F 100% 29.85 in 10.0 mi Calm Calm - N/A   Unknown
1:55 AM 59.0 °F - 59.0 °F 100% 29.85 in 10.0 mi Calm Calm - N/A   Unknown
2:15 AM 60.8 °F - 60.8 °F 100% 29.85 in 10.0 mi Calm Calm - N/A   Unknown
2:35 AM 59.0 °F - 59.0 °F 100% 29.85 in 10.0 mi Calm Calm - N/A   Unknown
2:55 AM 59.0 °F - 59.0 °F 100% 29.85 in 10.0 mi Calm Calm - N/A   Unknown
3:15 AM 59.0 °F - 59.0 °F 100% 29.85 in 10.0 mi Calm Calm - N/A   Unknown
3:35 AM 59.0 °F - 59.0 °F 100% 29.85 in 7.0 mi Calm Calm - N/A   Unknown
3:55 AM 55.4 °F - 55.4 °F 100% 29.85 in 7.0 mi Calm Calm - N/A   Unknown
4:15 AM 55.4 °F - 55.4 °F 100% 29.85 in 5.0 mi Calm Calm - N/A   Mist
4:35 AM 59.0 °F - 59.0 °F 100% 29.85 in 7.0 mi Calm Calm - N/A   Unknown
4:55 AM 59.0 °F - 59.0 °F 100% 29.86 in 5.0 mi Calm Calm - N/A   Mist
5:15 AM 55.4 °F - 55.4 °F 100% 29.86 in 7.0 mi Calm Calm - N/A   Unknown
5:35 AM 55.4 °F - 55.4 °F 100% 29.86 in 7.0 mi Calm Calm - N/A   Unknown
5:55 AM 59.0 °F - 59.0 °F 100% 29.87 in 10.0 mi Calm Calm - N/A   Unknown
6:15 AM 59.0 °F - 59.0 °F 100% 29.88 in 10.0 mi Calm Calm - N/A   Unknown
6:35 AM 55.4 °F - 55.4 °F 100% 29.89 in 7.0 mi Calm Calm - N/A   Unknown
6:55 AM 55.4 °F - 55.4 °F 100% 29.89 in 5.0 mi Calm Calm - N/A   Mist
7:15 AM 55.4 °F - 55.4 °F 100% 29.90 in 7.0 mi Calm Calm - N/A   Unknown
7:35 AM 55.4 °F - 55.4 °F 100% 29.91 in 3.0 mi Calm Calm - N/A   Mist
7:55 AM 57.2 °F - 57.2 °F 100% 29.92 in 7.0 mi Calm Calm - N/A   Unknown
8:15 AM 59.0 °F - 59.0 °F 100% 29.92 in 7.0 mi Calm Calm - N/A   Unknown
8:35 AM 60.8 °F - 60.8 °F 100% 29.93 in 10.0 mi Calm Calm - N/A   Unknown
8:55 AM 66.2 °F - 62.6 °F 88% 29.93 in 10.0 mi Calm Calm - N/A   Unknown
9:15 AM 69.8 °F - 64.4 °F 83% 29.94 in 10.0 mi Calm Calm - N/A   Unknown
9:35 AM 71.6 °F - 64.4 °F 78% 29.95 in 10.0 mi Calm Calm - N/A   Unknown
9:55 AM 73.4 °F - 64.4 °F 73% 29.95 in 10.0 mi Calm Calm - N/A   Unknown
10:15 AM 73.4 °F - 64.4 °F 73% 29.95 in 10.0 mi Calm Calm - N/A   Unknown
10:35 AM 77.0 °F - 66.2 °F 69% 29.95 in 10.0 mi Calm Calm - N/A   Unknown
10:55 AM 78.8 °F - 68.0 °F 69% 29.95 in 10.0 mi Calm Calm - N/A   Unknown
11:15 AM 78.8 °F - 64.4 °F 61% 29.95 in 10.0 mi East 3.5 mph - N/A   Unknown
11:35 AM 80.6 °F 82.7 °F 66.2 °F 61% 29.95 in 10.0 mi Calm Calm - N/A   Unknown
11:55 AM 82.4 °F 83.9 °F 64.4 °F 54% 29.95 in 10.0 mi SE 6.9 mph - N/A   Unknown
12:15 PM 82.4 °F 83.9 °F 64.4 °F 54% 29.94 in 10.0 mi South 6.9 mph - N/A   Unknown
12:35 PM 84.2 °F 85.6 °F 64.4 °F 51% 29.93 in 10.0 mi SE 4.6 mph - N/A   Unknown
12:55 PM 86.0 °F 87.3 °F 64.4 °F 48% 29.93 in 10.0 mi SSE 8.1 mph - N/A   Unknown
1:15 PM 86.0 °F 87.3 °F 64.4 °F 48% 29.92 in 10.0 mi South 3.5 mph - N/A   Unknown
1:35 PM 89.6 °F 92.2 °F 66.2 °F 46% 29.91 in 10.0 mi South 4.6 mph - N/A   Unknown
1:55 PM 89.6 °F 91.1 °F 64.4 °F 43% 29.90 in 10.0 mi Calm Calm - N/A   Unknown
2:15 PM 89.6 °F 92.2 °F 66.2 °F 46% 29.90 in 10.0 mi South 5.8 mph - N/A   Unknown
2:35 PM 89.6 °F 91.1 °F 64.4 °F 43% 29.89 in 10.0 mi Calm Calm - N/A   Unknown
2:55 PM 91.4 °F 93.2 °F 64.4 °F 41% 29.89 in 10.0 mi East 4.6 mph - N/A   Unknown
3:15 PM 91.4 °F 93.2 °F 64.4 °F 41% 29.88 in 10.0 mi SSE 5.8 mph - N/A   Unknown
3:35 PM 91.4 °F 93.2 °F 64.4 °F 41% 29.88 in 10.0 mi South 5.8 mph - N/A   Unknown
3:55 PM 91.4 °F 93.2 °F 64.4 °F 41% 29.88 in 10.0 mi Calm Calm - N/A   Unknown
4:15 PM 91.4 °F 93.2 °F 64.4 °F 41% 29.88 in 10.0 mi SSW 3.5 mph - N/A   Unknown
4:35 PM 91.4 °F 93.2 °F 64.4 °F 41% 29.87 in 10.0 mi SSE 3.5 mph - N/A   Unknown
4:55 PM 91.4 °F 93.2 °F 64.4 °F 41% 29.87 in 10.0 mi SE 3.5 mph - N/A   Unknown
5:15 PM 91.4 °F 93.2 °F 64.4 °F 41% 29.87 in 10.0 mi SE 4.6 mph - N/A   Unknown
5:35 PM 91.4 °F 93.2 °F 64.4 °F 41% 29.87 in 10.0 mi SE 3.5 mph - N/A   Unknown
5:55 PM 89.6 °F 91.1 °F 64.4 °F 43% 29.88 in 10.0 mi SE 3.5 mph - N/A   Unknown
6:15 PM 89.6 °F 91.1 °F 64.4 °F 43% 29.88 in 10.0 mi SE 4.6 mph - N/A   Unknown
6:35 PM 86.0 °F 86.6 °F 62.6 °F 45% 29.88 in 10.0 mi SE 3.5 mph - N/A   Unknown
6:55 PM 82.4 °F 83.4 °F 62.6 °F 51% 29.88 in 10.0 mi SE 3.5 mph - N/A   Unknown
7:15 PM 82.4 °F 83.4 °F 62.6 °F 51% 29.88 in 10.0 mi Calm Calm - N/A   Unknown
7:35 PM 80.6 °F 82.3 °F 64.4 °F 58% 29.89 in 10.0 mi Calm Calm - N/A   Unknown
7:55 PM 78.8 °F - 64.4 °F 61% 29.89 in 10.0 mi ESE 3.5 mph - N/A   Unknown
8:15 PM 80.6 °F 82.3 °F 64.4 °F 58% 29.90 in 10.0 mi Calm Calm - N/A   Unknown
8:35 PM 78.8 °F - 64.4 °F 61% 29.90 in 10.0 mi Calm Calm - N/A   Unknown
8:55 PM 71.6 °F - 64.4 °F 78% 29.91 in 10.0 mi Calm Calm - N/A   Unknown
9:15 PM 73.4 °F - 64.4 °F 73% 29.92 in 10.0 mi Calm Calm - N/A   Unknown
9:35 PM 71.6 °F - 64.4 °F 78% 29.92 in 10.0 mi Calm Calm - N/A   Unknown
9:55 PM 71.6 °F - 64.4 °F 78% 29.92 in 10.0 mi Calm Calm - N/A   Unknown
10:15 PM 71.6 °F - 64.4 °F 78% 29.92 in 10.0 mi Calm Calm - N/A   Unknown
10:35 PM 69.8 °F - 64.4 °F 83% 29.93 in 10.0 mi Calm Calm - N/A   Unknown
10:55 PM 69.8 °F - 64.4 °F 83% 29.93 in 10.0 mi Calm Calm - N/A   Unknown
11:15 PM 69.8 °F - 64.4 °F 83% 29.93 in 10.0 mi Calm Calm - N/A   Unknown
11:35 PM 68.0 °F - 64.4 °F 88% 29.93 in 10.0 mi Calm Calm - N/A   Unknown
11:55 PM 73.4 °F - 64.4 °F 73% 29.93 in 10.0 mi ESE 3.5 mph - N/A   Unknown